Location: ČR
(50.0000°N, 15.0000°E)
Time: 15:05:48
(UTC+00:00)

Explorer 7 - Pass Details

Date: 24 October 2021
Orbit: 483 x 675 km, 50.3° (Epoch: 27 November)

Event Time Altitude Azimuth Distance (km) Brightness Sun altitude
Rises 19:12:17 0° 199° (SSW) 2,620 - -32.6°
Reaches altitude 10° 19:15:01 10° 179° (S) 1,771 - -33.0°
Maximum altitude 19:17:40 17° 138° (SE) 1,415 - -33.4°
Drops below altitude 10° 19:20:25 10° 97° (E) 1,854 - -33.8°
Sets 19:23:21 0° 77° (ENE) 2,800 - -34.2°
